Weather History for KFYJ - August, 2014

Change the Weather History Date:

Saturday, August 23, 2014

  Actual Average (KRIC) Record (KRIC)
Temperature  
Mean Temperature 77 °F 77 °F  
Max Temperature 84 °F 87 °F 101 °F (2002)
Min Temperature 70 °F 67 °F 53 °F (1962)
Degree Days  
Heating Degree Days 0 0  
Month to date heating degree days 0  
Since 1 June heating degree days 7  
Since 1 July heating degree days 0  
Cooling Degree Days 12 12  
Month to date cooling degree days 298  
Year to date cooling degree days 1217  
Since 1 June cooling degree days 1056  
Growing Degree Days 27 (Base 50)    
Moisture  
Dew Point 68 °F    
Average Humidity 78    
Maximum Humidity 92    
Minimum Humidity 52    
Precipitation  
Precipitation 0.19 in 0.16 in 3.19 in (1933)
Month to date precipitation 3.52  
Year to date precipitation 28.85  
Snow  
Snow 0.00 in 0.00 in 0.00 in (2002)
Month to date snowfall 0.0  
Since 1 July snowfall 0.0  
Snow Depth -    
Sea Level Pressure  
Sea Level Pressure 30.00 in    
Wind  
Wind Speed 3 mph (ENE)    
Max Wind Speed 12 mph    
Max Gust Speed 16 mph    
Visibility 9 miles    
Events      
T = Trace of Precipitation, MM = Missing Value Source: NWS Daily Summary

Daily Weather History Graph

Daily Weather History Graph

Search for Another Location

Airport or City:

Trip Planner

Search our weather history database for the weather conditions in past years. The results will help you decide how hot, cold, wet, or windy it might be!

Date:

Astronomy

Aug. 23, 2014 Rise Set
Actual Time 6:29 AM EDT 7:48 PM EDT
Civil Twilight 6:02 AM EDT 8:16 PM EDT
Nautical Twilight 5:29 AM EDT 8:48 PM EDT
Astronomical Twilight 4:55 AM EDT 9:22 PM EDT
Moon 4:44 AM EDT (8/23) 6:32 PM EDT (8/23)
Length of Visible Light 14h 13m
Length of Day
13h 19m
Waning Crescent, 3% of the Moon is Illuminated
Aug 23
Waning Crescent
Aug 25
New
Sep 2
First Quarter
Sep 8
Full
Sep 15
Last Quarter

Hourly Weather History & Observations

Time (EDT) Temp. Heat Index Dew Point Humidity Pressure Visibility Wind Dir Wind Speed Gust Speed Precip Events Conditions
12:15 AM 73.9 °F - 71.1 °F 91% 30.00 in 7.0 mi Calm Calm - N/A   Clear
12:35 AM 73.2 °F - 70.2 °F 90% 29.99 in 5.0 mi Calm Calm - N/A   Clear
12:55 AM 72.9 °F - 70.2 °F 91% 29.99 in 5.0 mi Calm Calm - N/A   Clear
1:15 AM 72.9 °F - 70.2 °F 91% 29.99 in 5.0 mi Calm Calm - N/A   Clear
1:35 AM 72.5 °F - 69.8 °F 91% 29.99 in 7.0 mi Calm Calm - N/A   Clear
1:55 AM 71.2 °F - 68.5 °F 91% 29.98 in 7.0 mi Calm Calm - N/A   Clear
2:15 AM 72.0 °F - 69.3 °F 91% 29.98 in 7.0 mi Calm Calm - N/A   Clear
2:35 AM 71.2 °F - 68.5 °F 91% 29.97 in 7.0 mi Calm Calm - N/A   Clear
2:55 AM 70.5 °F - 68.0 °F 92% 29.96 in 10.0 mi Calm Calm - N/A   Clear
3:15 AM 70.9 °F - 68.4 °F 92% 29.97 in 5.0 mi Calm Calm - N/A   Scattered Clouds
3:35 AM 71.6 °F - 69.1 °F 92% 29.97 in 7.0 mi Calm Calm - N/A   Mostly Cloudy
3:55 AM 71.6 °F - 69.1 °F 92% 29.97 in 7.0 mi Calm Calm - N/A   Overcast
4:15 AM 71.1 °F - 68.5 °F 92% 29.97 in 7.0 mi Calm Calm - N/A   Overcast
4:35 AM 72.1 °F - 69.8 °F 92% 29.96 in 7.0 mi NE 4.6 mph - N/A   Mostly Cloudy
5:15 AM 72.5 °F - 69.8 °F 91% 29.96 in 10.0 mi Calm Calm - N/A   Mostly Cloudy
5:35 AM 72.3 °F - 69.6 °F 91% 29.96 in 7.0 mi Calm Calm - N/A   Overcast
5:55 AM 72.5 °F - 69.8 °F 91% 29.97 in 10.0 mi NNE 3.5 mph - N/A   Mostly Cloudy
6:15 AM 72.1 °F - 69.4 °F 91% 29.97 in 10.0 mi Calm Calm - N/A   Overcast
6:35 AM 72.5 °F - 69.8 °F 91% 29.98 in 7.0 mi NNE 3.5 mph - N/A   Overcast
7:15 AM 73.0 °F - 70.2 °F 91% 29.99 in 10.0 mi Calm Calm - N/A   Mostly Cloudy
7:35 AM 73.4 °F - 70.3 °F 90% 30.00 in 10.0 mi North 3.5 mph - N/A   Overcast
7:55 AM 73.8 °F - 70.9 °F 91% 30.00 in 10.0 mi Calm Calm - N/A   Overcast
8:15 AM 74.1 °F - 70.9 °F 90% 30.01 in 10.0 mi Calm Calm - N/A   Overcast
8:35 AM 74.7 °F - 71.2 °F 89% 30.00 in 10.0 mi Calm Calm - N/A   Overcast
8:55 AM 75.2 °F - 71.6 °F 89% 30.01 in 10.0 mi North 3.5 mph - N/A   Overcast
9:15 AM 75.7 °F - 71.8 °F 87% 30.01 in 10.0 mi Calm Calm - N/A   Overcast
9:35 AM 76.1 °F - 71.8 °F 86% 30.01 in 10.0 mi Calm Calm - N/A   Overcast
9:55 AM 77.0 °F - 72.3 °F 85% 30.01 in 10.0 mi Calm Calm - N/A   Overcast
10:15 AM 79.3 °F - 70.9 °F 75% 30.01 in 10.0 mi East 6.9 mph - N/A   Overcast
10:35 AM 79.0 °F - 68.9 °F 71% 30.01 in 10.0 mi ENE 5.8 mph - N/A   Overcast
10:55 AM 81.5 °F 84.8 °F 69.1 °F 66% 30.01 in 10.0 mi East 6.9 mph - N/A   Mostly Cloudy
11:15 AM 81.0 °F 83.4 °F 67.3 °F 63% 30.02 in 10.0 mi East 6.9 mph - N/A   Mostly Cloudy
11:35 AM 80.6 °F 82.9 °F 67.1 °F 63% 30.03 in 10.0 mi East 4.6 mph - N/A   Mostly Cloudy
11:55 AM 80.1 °F 82.2 °F 66.6 °F 63% 30.03 in 10.0 mi ENE 6.9 mph - N/A   Overcast
12:15 PM 80.2 °F 82.6 °F 67.1 °F 64% 30.03 in 10.0 mi NE 4.6 mph - N/A   Overcast
12:35 PM 82.2 °F 85.1 °F 67.8 °F 62% 30.02 in 10.0 mi ENE 6.9 mph - N/A   Mostly Cloudy
12:55 PM 82.4 °F 84.8 °F 66.6 °F 59% 30.02 in 10.0 mi NE 5.8 mph - N/A   Scattered Clouds
1:15 PM 81.5 °F 84.1 °F 67.3 °F 62% 30.01 in 10.0 mi ENE 9.2 mph - N/A   Mostly Cloudy
1:35 PM 83.5 °F 86.0 °F 66.9 °F 57% 30.01 in 10.0 mi East 9.2 mph - N/A   Scattered Clouds
1:55 PM 84.4 °F 87.1 °F 66.9 °F 56% 30.00 in 10.0 mi ESE 9.2 mph - N/A   Clear
2:15 PM 82.6 °F 84.7 °F 65.8 °F 57% 30.00 in 10.0 mi ENE 8.1 mph - N/A   Clear
2:35 PM 83.8 °F 86.0 °F 66.2 °F 55% 30.00 in 10.0 mi East 9.2 mph - N/A   Mostly Cloudy
2:55 PM 82.0 °F 84.3 °F 66.2 °F 59% 30.00 in 10.0 mi ENE 8.1 mph - N/A   Scattered Clouds
3:15 PM 82.6 °F 84.7 °F 65.8 °F 57% 29.99 in 10.0 mi ENE 9.2 mph - N/A   Mostly Cloudy
3:35 PM 83.1 °F 85.2 °F 66.0 °F 56% 29.99 in 10.0 mi ENE 8.1 mph - N/A   Scattered Clouds
3:55 PM 84.0 °F 85.8 °F 65.3 °F 53% 29.99 in 10.0 mi ENE 8.1 mph - N/A   Scattered Clouds
4:15 PM 81.9 °F 83.4 °F 64.0 °F 55% 29.99 in 10.0 mi NE 6.9 mph - N/A   Mostly Cloudy
4:35 PM 83.5 °F 85.1 °F 64.6 °F 53% 29.98 in 10.0 mi East 6.9 mph - N/A   Scattered Clouds
4:55 PM 83.8 °F 85.3 °F 64.4 °F 52% 29.98 in 10.0 mi East 9.2 mph - N/A   Clear
5:15 PM 83.3 °F 85.1 °F 64.9 °F 54% 29.99 in 10.0 mi ENE 8.1 mph - N/A   Mostly Cloudy
5:35 PM 82.2 °F 83.8 °F 64.8 °F 55% 29.99 in 10.0 mi East 5.8 mph - N/A   Overcast
5:55 PM 81.7 °F 83.6 °F 65.7 °F 58% 29.99 in 10.0 mi ENE 9.2 mph - N/A   Overcast
6:15 PM 80.1 °F 82.0 °F 65.3 °F 61% 29.99 in 10.0 mi ENE 5.8 mph - N/A   Overcast
6:35 PM 79.0 °F - 66.2 °F 65% 29.99 in 10.0 mi NE 4.6 mph - N/A   Overcast
6:55 PM 78.3 °F - 66.7 °F 68% 30.00 in 10.0 mi ENE 6.9 mph - N/A   Overcast
7:15 PM 76.5 °F - 67.6 °F 74% 30.01 in 10.0 mi NE 11.5 mph 16.1 mph N/A   Overcast
7:35 PM 73.6 °F - 69.4 °F 87% 30.02 in 1.2 mi NE 6.9 mph - 0.10 in   Overcast
7:55 PM 73.2 °F - 69.8 °F 89% 30.02 in 2.0 mi ENE 6.9 mph - 0.18 in   Overcast
8:15 PM 73.0 °F - 69.8 °F 90% 30.02 in 7.0 mi NE 4.6 mph - 0.01 in   Overcast
8:35 PM 72.9 °F - 69.6 °F 90% 30.03 in 10.0 mi ENE 6.9 mph - 0.01 in   Overcast
8:55 PM 72.7 °F - 69.3 °F 89% 30.03 in 10.0 mi ENE 6.9 mph - 0.01 in   Overcast
9:15 PM 72.7 °F - 69.3 °F 89% 30.03 in 10.0 mi ENE 10.4 mph - N/A   Overcast
9:35 PM 72.5 °F - 68.9 °F 88% 30.03 in 10.0 mi ENE 8.1 mph - N/A   Overcast
9:55 PM 72.5 °F - 68.9 °F 88% 30.04 in 10.0 mi ENE 8.1 mph - N/A   Overcast
10:15 PM 72.1 °F - 68.7 °F 89% 30.04 in 10.0 mi NE 4.6 mph - N/A   Overcast
10:35 PM 71.8 °F - 68.2 °F 88% 30.05 in 10.0 mi NE 4.6 mph - N/A   Overcast
10:55 PM 71.6 °F - 68.0 °F 88% 30.05 in 10.0 mi Calm Calm - N/A   Overcast
11:15 PM 71.6 °F - 68.0 °F 88% 30.06 in 10.0 mi Calm Calm - N/A   Overcast
11:35 PM 71.2 °F - 67.6 °F 88% 30.06 in 10.0 mi Calm Calm - N/A   Overcast
11:55 PM 71.4 °F - 67.8 °F 88% 30.06 in 10.0 mi Calm Calm - N/A   Overcast